EN

Hourly Weather Altovo

Today, 19 January, Tuesday

Time Temperature Precipitation Wind Pressure Humidity
00:00 -11°C° 0 mm 1 mps 754 mmHg 96%
01:00 -11°C° 0 mm 1 mps 754 mmHg 95%
02:00 -11°C° 0 mm 1 mps 754 mmHg 96%
03:00 -11°C° 0 mm 1 mps 754 mmHg 96%
04:00 -12°C° 0 mm 1 mps 754 mmHg 96%
05:00 -12°C° 0 mm 1 mps 754 mmHg 96%
06:00 -12°C° 0 mm 1 mps 754 mmHg 95%
07:00 -12°C° 0 mm 1 mps 754 mmHg 95%
08:00 -12°C° 0 mm 1 mps 754 mmHg 94%
09:00 -11°C° 0 mm 1 mps 754 mmHg 92%
10:00 -11°C° 0 mm 1 mps 754 mmHg 89%
11:00 -10°C° 0 mm 1 mps 754 mmHg 86%
12:00 -10°C° 0 mm 1 mps 754 mmHg 86%
13:00 -9°C° 0 mm 1 mps 754 mmHg 85%
14:00 -9°C° 0 mm 1 mps 753 mmHg 84%
15:00 -10°C° 0 mm 1 mps 753 mmHg 87%
16:00 -11°C° 0 mm 1 mps 753 mmHg 89%
17:00 -12°C° 0 mm 1 mps 754 mmHg 92%
18:00 -14°C° 0 mm 2 mps 754 mmHg 92%
19:00 -14°C° 0 mm 2 mps 754 mmHg 93%
20:00 -15°C° 0 mm 2 mps 754 mmHg 93%
21:00 -15°C° 0 mm 2 mps 754 mmHg 93%
22:00 -15°C° 0 mm 2 mps 753 mmHg 93%
23:00 -15°C° 0 mm 2 mps 753 mmHg 93%

Tomorrow, 20 January, Wednesday

Time Temperature Precipitation Wind Pressure Humidity
00:00 -16°C° 0 mm 2 mps 754 mmHg 93%
01:00 -16°C° 0 mm 2 mps 754 mmHg 93%
02:00 -16°C° 0 mm 2 mps 754 mmHg 93%
03:00 -16°C° 0 mm 2 mps 754 mmHg 94%
04:00 -16°C° 0 mm 2 mps 753 mmHg 94%
05:00 -16°C° 0 mm 2 mps 753 mmHg 94%
06:00 -16°C° 0 mm 2 mps 753 mmHg 94%
07:00 -16°C° 0 mm 2 mps 753 mmHg 94%
08:00 -17°C° 0 mm 3 mps 753 mmHg 94%
09:00 -16°C° 0 mm 3 mps 753 mmHg 91%
10:00 -15°C° 0 mm 3 mps 753 mmHg 89%
11:00 -15°C° 0 mm 3 mps 753 mmHg 87%
12:00 -15°C° 0 mm 4 mps 753 mmHg 85%
13:00 -14°C° 0 mm 4 mps 752 mmHg 84%
14:00 -14°C° 0 mm 4 mps 752 mmHg 83%
15:00 -14°C° 0 mm 4 mps 752 mmHg 83%
16:00 -14°C° 0 mm 4 mps 751 mmHg 83%
17:00 -15°C° 0 mm 4 mps 751 mmHg 83%
18:00 -14°C° 0 mm 4 mps 750 mmHg 85%
19:00 -14°C° 0 mm 5 mps 750 mmHg 86%
20:00 -14°C° 0 mm 5 mps 749 mmHg 88%
21:00 -14°C° 0.2 mm 5 mps 749 mmHg 89%
22:00 -13°C° 0.2 mm 5 mps 748 mmHg 91%
23:00 -13°C° 0.2 mm 5 mps 748 mmHg 92%

Day after tomorrow, 21 January, Thursday

Time Temperature Precipitation Wind Pressure Humidity
00:00 -12°C° 0.5 mm 5 mps 747 mmHg 92%
01:00 -12°C° 0.5 mm 5 mps 747 mmHg 92%
02:00 -11°C° 0.5 mm 5 mps 746 mmHg 93%
03:00 -11°C° 0.3 mm 5 mps 745 mmHg 92%
04:00 -10°C° 0.3 mm 4 mps 745 mmHg 92%
05:00 -9°C° 0.3 mm 4 mps 744 mmHg 92%
06:00 -8°C° 0.1 mm 4 mps 744 mmHg 92%
07:00 -8°C° 0.1 mm 4 mps 744 mmHg 92%
08:00 -7°C° 0.1 mm 4 mps 744 mmHg 93%
09:00 -5°C° 0.1 mm 4 mps 743 mmHg 94%
10:00 -4°C° 0.1 mm 4 mps 743 mmHg 94%
11:00 -2°C° 0.1 mm 4 mps 743 mmHg 95%
12:00 -2°C° 0.1 mm 4 mps 743 mmHg 96%
13:00 -1°C° 0.1 mm 4 mps 743 mmHg 96%
14:00 -1°C° 0.1 mm 4 mps 743 mmHg 97%
15:00 -1°C° 0.3 mm 4 mps 743 mmHg 97%
16:00 -1°C° 0.3 mm 4 mps 743 mmHg 97%
17:00 -1°C° 0.3 mm 4 mps 743 mmHg 96%
18:00 0°C° 0.1 mm 3 mps 743 mmHg 96%
19:00 0°C° 0.1 mm 3 mps 743 mmHg 95%
20:00 0°C° 0.1 mm 3 mps 743 mmHg 94%
21:00 0°C° 0 mm 3 mps 743 mmHg 94%
22:00 -1°C° 0 mm 3 mps 743 mmHg 93%
23:00 -1°C° 0 mm 3 mps 743 mmHg 93%

22 January, Friday

Time Temperature Precipitation Wind Pressure Humidity
00:00 -2°C° 0 mm 3 mps 744 mmHg 93%
01:00 -2°C° 0 mm 3 mps 744 mmHg 93%
02:00 -4°C° 0 mm 3 mps 744 mmHg 93%
03:00 -4°C° 0 mm 3 mps 743 mmHg 94%
04:00 -4°C° 0 mm 3 mps 743 mmHg 94%
05:00 -4°C° 0 mm 4 mps 743 mmHg 95%
06:00 -3°C° 0 mm 4 mps 743 mmHg 95%
07:00 -3°C° 0 mm 4 mps 743 mmHg 96%
08:00 -2°C° 0 mm 4 mps 743 mmHg 96%
09:00 -2°C° 0 mm 4 mps 743 mmHg 95%
10:00 -1°C° 0 mm 4 mps 743 mmHg 95%
11:00 -1°C° 0 mm 4 mps 743 mmHg 94%
12:00 -1°C° 0 mm 4 mps 742 mmHg 94%
13:00 0°C° 0 mm 3 mps 742 mmHg 93%
14:00 0°C° 0 mm 3 mps 742 mmHg 93%
15:00 0°C° 0 mm 3 mps 742 mmHg 93%
16:00 0°C° 0 mm 3 mps 741 mmHg 94%
17:00 0°C° 0 mm 3 mps 741 mmHg 94%
18:00 0°C° 0 mm 3 mps 741 mmHg 94%
19:00 0°C° 0 mm 3 mps 741 mmHg 94%
20:00 0°C° 0 mm 3 mps 741 mmHg 94%
21:00 0°C° 0 mm 3 mps 741 mmHg 94%
22:00 0°C° 0 mm 3 mps 741 mmHg 94%
23:00 0°C° 0 mm 3 mps 740 mmHg 95%

23 January, Saturday

Time Temperature Precipitation Wind Pressure Humidity
00:00 0°C° 0 mm 3 mps 740 mmHg 96%
01:00 0°C° 0 mm 3 mps 740 mmHg 96%
02:00 +1°C° 0 mm 2 mps 740 mmHg 97%
03:00 +1°C° 0.3 mm 2 mps 740 mmHg 97%
04:00 +2°C° 0.3 mm 2 mps 740 mmHg 97%
05:00 +1°C° 0.3 mm 3 mps 740 mmHg 98%
06:00 +2°C° 0.1 mm 2 mps 741 mmHg 98%
07:00 +2°C° 0.1 mm 2 mps 741 mmHg 98%
08:00 +1°C° 0.1 mm 2 mps 741 mmHg 98%
09:00 +1°C° 0 mm 2 mps 742 mmHg 98%
10:00 +1°C° 0 mm 2 mps 742 mmHg 98%
11:00 +1°C° 0 mm 2 mps 743 mmHg 99%
12:00 +1°C° 0 mm 2 mps 743 mmHg 98%
13:00 +1°C° 0 mm 2 mps 743 mmHg 97%
14:00 +1°C° 0 mm 2 mps 744 mmHg 96%
15:00 +1°C° 0 mm 2 mps 744 mmHg 96%
16:00 +1°C° 0 mm 2 mps 744 mmHg 95%
17:00 +1°C° 0 mm 1 mps 744 mmHg 95%
18:00 -1°C° 0 mm 2 mps 744 mmHg 95%
19:00 -1°C° 0 mm 2 mps 744 mmHg 96%
20:00 -1°C° 0 mm 2 mps 744 mmHg 96%
21:00 -1°C° 0 mm 2 mps 744 mmHg 96%
22:00 -1°C° 0 mm 2 mps 744 mmHg 96%
23:00 +1°C° 0 mm 2 mps 743 mmHg 96%

24 January, Sunday

Time Temperature Precipitation Wind Pressure Humidity
00:00 +1°C° 0 mm 2 mps 743 mmHg 97%
01:00 +1°C° 0 mm 2 mps 743 mmHg 97%
02:00 +1°C° 0 mm 2 mps 743 mmHg 98%
03:00 +1°C° 0 mm 2 mps 742 mmHg 98%
04:00 +1°C° 0 mm 2 mps 742 mmHg 98%
05:00 +1°C° 0 mm 2 mps 741 mmHg 98%
06:00 +1°C° 0.5 mm 2 mps 741 mmHg 98%
07:00 0°C° 0.5 mm 3 mps 741 mmHg 97%
08:00 0°C° 0.5 mm 3 mps 741 mmHg 97%
09:00 0°C° 0.1 mm 3 mps 740 mmHg 97%
10:00 -1°C° 0.1 mm 4 mps 740 mmHg 97%
11:00 0°C° 0.1 mm 4 mps 740 mmHg 97%
12:00 0°C° 0.1 mm 4 mps 740 mmHg 96%
13:00 0°C° 0.1 mm 4 mps 739 mmHg 96%
14:00 0°C° 0.1 mm 4 mps 738 mmHg 95%
15:00 0°C° 0.1 mm 4 mps 738 mmHg 95%
16:00 0°C° 0.1 mm 4 mps 737 mmHg 95%
17:00 +1°C° 0.1 mm 4 mps 737 mmHg 96%
18:00 +1°C° 0.3 mm 4 mps 736 mmHg 96%
19:00 +1°C° 0.3 mm 4 mps 736 mmHg 96%
20:00 +1°C° 0.3 mm 4 mps 735 mmHg 96%
21:00 +1°C° 0.5 mm 4 mps 735 mmHg 96%
22:00 +1°C° 0.5 mm 4 mps 734 mmHg 96%
23:00 +1°C° 0.5 mm 4 mps 734 mmHg 96%
Show more